User: anonymous   Login
Location: Unspecified
(0.0000°N, 0.0000°E)
Time: 01:30:32
(UTC+02:00)
Language:

Helios 1A Rocket - Orbit

View from above orbital plane
View from above orbital plane
View from above satellite
View from above satellite

Ground track
Ground track

The orbit data is extracted from the following two-line orbital elements,

1 23608U 95033D   14297.78126783  .00006568  00000-0  63848-3 0  3591
2 23608 098.2773 166.0362 0017663 192.2233 167.8559 14.92829431 43355
Epoch (UTC): 24 October 2014 18:45:01
Eccentricity: 0.0017663
inclination: 98.2773°
perigee height: 577 km
apogee height: 601 km
right ascension of ascending node: 166.0362°
argument of perigee: 192.2233°
revolutions per day: 14.92829431
mean anomaly at epoch: 167.8559°
orbit number at epoch: 4335

The dashed part of the orbit path shows where the satellite is in the earth's shadow,  

DLR